AKJ1528 VABB-VAAH

Flight info

Callsign AKJ1528
Flight time 0h 52m
Altitude 33000
Route ANOLI2A ISRIS G208 APANO APANO1A
Aircraft B38M/M-SDE1FGHILORVWXY/HB1

Departure

Time 2026-05-08 18:05
Airport Chhatrapati Shivaji Maharaj International Airport (VABB)

Arrival

Time 2026-05-08 18:57
Airport Sardar Vallabh Patel International Airport (VAAH)
Time Latitude Longitude Altitude Speed Heading
2026-05-08 17:43 19.09155 72.85486 51 ft 0 kts 360°
2026-05-08 17:54 19.09154 72.85486 52 ft 1 kts
2026-05-08 17:55 19.09130 72.85486 47 ft 3 kts
2026-05-08 17:55 19.09109 72.85484 50 ft 4 kts 24°
2026-05-08 17:55 19.09093 72.85467 49 ft 4 kts 79°
2026-05-08 17:55 19.09092 72.85440 50 ft 4 kts 89°
2026-05-08 17:56 19.09092 72.85434 49 ft 0 kts 89°
2026-05-08 17:59 19.09092 72.85451 47 ft 6 kts 89°
2026-05-08 17:59 19.09093 72.85537 52 ft 17 kts 89°
2026-05-08 17:59 19.09036 72.85629 51 ft 14 kts 137°
2026-05-08 18:00 19.09028 72.85687 51 ft 8 kts 88°
2026-05-08 18:00 19.09032 72.85924 51 ft 25 kts 88°
2026-05-08 18:00 19.09034 72.86128 51 ft 29 kts 89°
2026-05-08 18:01 19.09037 72.86346 51 ft 30 kts 89°
2026-05-08 18:01 19.09040 72.86573 49 ft 31 kts 89°
2026-05-08 18:01 19.09043 72.86807 52 ft 32 kts 89°
2026-05-08 18:01 19.09046 72.86999 52 ft 22 kts 89°
2026-05-08 18:02 19.09048 72.87167 52 ft 24 kts 89°
2026-05-08 18:02 19.09050 72.87286 52 ft 25 kts 89°
2026-05-08 18:02 19.09053 72.87541 49 ft 27 kts 89°
2026-05-08 18:02 19.09057 72.87750 51 ft 29 kts 89°
2026-05-08 18:03 19.09060 72.87936 51 ft 22 kts 90°
2026-05-08 18:03 19.09055 72.88037 47 ft 1 kts 121°
2026-05-08 18:03 19.09040 72.88047 51 ft 5 kts 156°
2026-05-08 18:03 19.08975 72.88053 50 ft 15 kts 179°
2026-05-08 18:04 19.08888 72.87960 50 ft 26 kts 265°
2026-05-08 18:04 19.08885 72.87698 50 ft 59 kts 268°
2026-05-08 18:04 19.08874 72.86987 49 ft 132 kts 269°
2026-05-08 18:04 19.08853 72.85792 142 ft 176 kts 267°
2026-05-08 18:05 19.08831 72.84480 407 ft 186 kts 270°
2026-05-08 18:05 19.08832 72.83100 1018 ft 192 kts 274°
2026-05-08 18:05 19.08848 72.81637 1552 ft 204 kts 271°
2026-05-08 18:05 19.08816 72.80117 2179 ft 212 kts 272°
2026-05-08 18:06 19.08783 72.78505 2615 ft 229 kts 272°
2026-05-08 18:06 19.08748 72.76747 2983 ft 249 kts 272°
2026-05-08 18:06 19.08724 72.74869 3552 ft 258 kts 276°
2026-05-08 18:06 19.09257 72.73072 4100 ft 263 kts 308°
2026-05-08 18:07 19.10681 72.71866 4680 ft 267 kts 339°
2026-05-08 18:07 19.12497 72.71464 5360 ft 271 kts
2026-05-08 18:07 19.14365 72.71773 6087 ft 274 kts 11°
2026-05-08 18:07 19.16276 72.72066 6763 ft 280 kts
2026-05-08 18:08 19.18215 72.72339 7502 ft 283 kts
2026-05-08 18:08 19.20177 72.72613 8227 ft 286 kts
2026-05-08 18:08 19.22162 72.72890 8953 ft 290 kts
2026-05-08 18:08 19.24173 72.73171 9701 ft 293 kts 10°
2026-05-08 18:09 19.26215 72.73456 10318 ft 301 kts 10°
2026-05-08 18:09 19.28351 72.73742 10732 ft 317 kts
2026-05-08 18:09 19.30567 72.74032 11218 ft 329 kts
2026-05-08 18:09 19.32861 72.74339 12010 ft 330 kts
2026-05-08 18:10 19.35148 72.74656 12775 ft 335 kts
2026-05-08 18:10 19.37474 72.74977 13552 ft 339 kts
2026-05-08 18:10 19.39829 72.75305 14260 ft 343 kts
2026-05-08 18:10 19.42206 72.75637 15010 ft 346 kts
2026-05-08 18:11 19.44597 72.75974 15745 ft 349 kts
2026-05-08 18:11 19.47015 72.76312 16451 ft 352 kts
2026-05-08 18:11 19.49451 72.76656 17166 ft 354 kts
2026-05-08 18:11 19.51907 72.77002 17850 ft 357 kts
2026-05-08 18:12 19.54379 72.77348 18460 ft 360 kts
2026-05-08 18:12 19.56875 72.77699 19023 ft 363 kts
2026-05-08 18:12 19.59383 72.78053 19574 ft 365 kts
2026-05-08 18:12 19.61912 72.78409 20109 ft 368 kts
2026-05-08 18:13 19.64462 72.78769 20646 ft 371 kts
2026-05-08 18:13 19.67027 72.79131 21174 ft 373 kts
2026-05-08 18:13 19.69610 72.79496 21687 ft 376 kts
2026-05-08 18:13 19.72216 72.79864 22178 ft 379 kts
2026-05-08 18:14 19.74836 72.80235 22683 ft 381 kts
2026-05-08 18:14 19.77473 72.80608 23172 ft 384 kts
2026-05-08 18:14 19.80127 72.80984 23617 ft 386 kts
2026-05-08 18:14 19.82798 72.81361 24012 ft 388 kts
2026-05-08 18:15 19.85482 72.81741 24427 ft 390 kts
2026-05-08 18:15 19.88180 72.82124 24837 ft 392 kts
2026-05-08 18:15 19.90886 72.82507 25242 ft 394 kts
2026-05-08 18:15 19.93612 72.82893 25644 ft 396 kts
2026-05-08 18:16 19.96350 72.83281 26041 ft 398 kts
2026-05-08 18:16 19.99066 72.83667 26433 ft 400 kts
2026-05-08 18:16 20.01831 72.84059 26820 ft 402 kts
2026-05-08 18:16 20.04608 72.84454 27213 ft 404 kts
2026-05-08 18:17 20.07398 72.84850 27586 ft 406 kts
2026-05-08 18:17 20.10205 72.85249 27956 ft 408 kts
2026-05-08 18:17 20.13024 72.85649 28323 ft 410 kts
2026-05-08 18:17 20.15853 72.86053 28697 ft 412 kts
2026-05-08 18:18 20.18702 72.86459 29061 ft 414 kts
2026-05-08 18:18 20.21566 72.86866 29411 ft 416 kts
2026-05-08 18:18 20.24440 72.87276 29762 ft 418 kts
2026-05-08 18:18 20.27333 72.87689 30071 ft 420 kts
2026-05-08 18:19 20.30244 72.88104 30359 ft 422 kts
2026-05-08 18:19 20.33158 72.88521 30633 ft 424 kts
2026-05-08 18:19 20.36096 72.88941 30905 ft 427 kts
2026-05-08 18:19 20.39043 72.89362 31177 ft 428 kts
2026-05-08 18:20 20.42005 72.89786 31454 ft 430 kts
2026-05-08 18:20 20.44978 72.90212 31725 ft 432 kts
2026-05-08 18:20 20.47965 72.90640 31994 ft 434 kts
2026-05-08 18:20 20.50967 72.91070 32308 ft 435 kts
2026-05-08 18:21 20.53924 72.91495 32673 ft 434 kts
2026-05-08 18:21 20.56917 72.91925 32863 ft 434 kts
2026-05-08 18:21 20.62878 72.92781 32852 ft 431 kts
2026-05-08 18:22 20.68828 72.93636 32849 ft 431 kts
2026-05-08 18:22 20.74809 72.94494 32849 ft 431 kts
2026-05-08 18:23 20.80770 72.94703 32847 ft 429 kts 359°
2026-05-08 18:23 20.86694 72.94921 32842 ft 429 kts 359°
2026-05-08 18:24 20.92659 72.95159 32837 ft 429 kts 359°
2026-05-08 18:24 20.98617 72.95399 32837 ft 429 kts 359°
2026-05-08 18:25 21.04577 72.95640 32835 ft 428 kts 359°
2026-05-08 18:25 21.10529 72.95881 32832 ft 428 kts 359°
2026-05-08 18:26 21.13475 72.96000 32828 ft 417 kts 359°
2026-05-08 18:26 21.16329 72.96115 32844 ft 405 kts 359°
2026-05-08 18:26 21.21934 72.96394 32831 ft 402 kts 360°
2026-05-08 18:27 21.26574 72.96634 32828 ft 402 kts 360°
2026-05-08 18:27 21.33065 72.96969 32232 ft 398 kts 360°
2026-05-08 18:28 21.35861 72.97113 31383 ft 406 kts 360°
2026-05-08 18:28 21.38705 72.97260 30547 ft 413 kts 360°
2026-05-08 18:28 21.41591 72.97409 29708 ft 418 kts
2026-05-08 18:28 21.44517 72.97560 28756 ft 423 kts
2026-05-08 18:29 21.47477 72.97713 27826 ft 428 kts
2026-05-08 18:29 21.50466 72.97867 26917 ft 432 kts
2026-05-08 18:29 21.53477 72.98023 26156 ft 433 kts
2026-05-08 18:29 21.56465 72.98177 25659 ft 427 kts
2026-05-08 18:30 21.59401 72.98048 25088 ft 419 kts 346°
2026-05-08 18:30 21.62159 72.97142 24656 ft 411 kts 341°
2026-05-08 18:30 21.63974 72.96604 24371 ft 407 kts 344°
2026-05-08 18:30 21.67607 72.95567 23759 ft 401 kts 343°
2026-05-08 18:31 21.69377 72.95053 23450 ft 398 kts 343°
2026-05-08 18:31 21.72039 72.94276 22918 ft 394 kts 343°
2026-05-08 18:31 21.74662 72.93508 22432 ft 388 kts 343°
2026-05-08 18:31 21.77250 72.92749 21984 ft 383 kts 343°
2026-05-08 18:32 21.79799 72.92000 21547 ft 377 kts 343°
2026-05-08 18:32 21.82320 72.91260 21111 ft 373 kts 344°
2026-05-08 18:32 21.84805 72.90530 20685 ft 368 kts 344°
2026-05-08 18:32 21.87263 72.89808 20262 ft 365 kts 344°
2026-05-08 18:33 21.89701 72.89091 19839 ft 361 kts 344°
2026-05-08 18:33 21.92112 72.88381 19422 ft 358 kts 345°
2026-05-08 18:33 21.94504 72.87678 19010 ft 355 kts 345°
2026-05-08 18:33 21.96879 72.86978 18598 ft 353 kts 345°
2026-05-08 18:34 21.99236 72.86285 18192 ft 350 kts 345°
2026-05-08 18:34 22.01578 72.85594 17742 ft 348 kts 345°
2026-05-08 18:34 22.03906 72.84908 17307 ft 345 kts 345°
2026-05-08 18:34 22.06183 72.84237 16895 ft 342 kts 345°
2026-05-08 18:35 22.08497 72.83555 16489 ft 339 kts 345°
2026-05-08 18:35 22.10758 72.82888 16087 ft 336 kts 345°
2026-05-08 18:35 22.12972 72.82235 15704 ft 333 kts 346°
2026-05-08 18:35 22.15267 72.81568 15243 ft 351 kts 346°
2026-05-08 18:36 22.17720 72.80847 14770 ft 370 kts 346°
2026-05-08 18:36 22.20223 72.80104 14322 ft 387 kts 346°
2026-05-08 18:36 22.22875 72.79316 13857 ft 402 kts 346°
2026-05-08 18:36 22.25627 72.78513 13278 ft 418 kts 346°
2026-05-08 18:37 22.28458 72.77697 12950 ft 418 kts 346°
2026-05-08 18:37 22.31224 72.76901 12754 ft 407 kts 346°
2026-05-08 18:37 22.33966 72.76112 12118 ft 409 kts 346°
2026-05-08 18:37 22.36731 72.75307 11815 ft 413 kts 345°
2026-05-08 18:38 22.39505 72.74501 11799 ft 414 kts 345°
2026-05-08 18:38 22.42286 72.73700 11799 ft 414 kts 345°
2026-05-08 18:38 22.45068 72.72899 11805 ft 414 kts 345°
2026-05-08 18:38 22.47752 72.72128 11746 ft 383 kts 346°
2026-05-08 18:39 22.50240 72.71411 11572 ft 358 kts 346°
2026-05-08 18:39 22.52581 72.70735 11240 ft 339 kts 346°
2026-05-08 18:39 22.54806 72.70091 10899 ft 324 kts 346°
2026-05-08 18:39 22.56932 72.69476 10589 ft 309 kts 346°
2026-05-08 18:40 22.58954 72.68885 10323 ft 294 kts 345°
2026-05-08 18:40 22.60891 72.68320 10087 ft 286 kts 345°
2026-05-08 18:40 22.62806 72.67760 9824 ft 285 kts 345°
2026-05-08 18:40 22.64719 72.67202 9591 ft 284 kts 345°
2026-05-08 18:41 22.66621 72.66646 9437 ft 283 kts 345°
2026-05-08 18:41 22.68516 72.66092 9279 ft 282 kts 345°
2026-05-08 18:41 22.70412 72.65538 9138 ft 281 kts 345°
2026-05-08 18:41 22.72301 72.64985 9019 ft 281 kts 345°
2026-05-08 18:42 22.74187 72.64434 8909 ft 281 kts 345°
2026-05-08 18:42 22.76069 72.63883 8822 ft 280 kts 345°
2026-05-08 18:42 22.77953 72.63331 8733 ft 280 kts 345°
2026-05-08 18:42 22.79836 72.62780 8656 ft 280 kts 345°
2026-05-08 18:43 22.81715 72.62230 8536 ft 280 kts 345°
2026-05-08 18:43 22.83599 72.61682 8294 ft 279 kts 345°
2026-05-08 18:43 22.85470 72.61141 8058 ft 278 kts 345°
2026-05-08 18:43 22.87358 72.60715 7808 ft 277 kts 359°
2026-05-08 18:44 22.89198 72.61178 7538 ft 273 kts 29°
2026-05-08 18:44 22.90599 72.62524 7288 ft 268 kts 49°
2026-05-08 18:44 22.91837 72.64026 6903 ft 267 kts 45°
2026-05-08 18:44 22.93110 72.65480 6438 ft 264 kts 45°
2026-05-08 18:45 22.94371 72.66916 5972 ft 262 kts 45°
2026-05-08 18:45 22.95614 72.68316 5499 ft 260 kts 44°
2026-05-08 18:45 22.96884 72.69703 5021 ft 258 kts 43°
2026-05-08 18:45 22.98147 72.71085 4559 ft 257 kts 43°
2026-05-08 18:46 22.99399 72.72457 4167 ft 252 kts 43°
2026-05-08 18:46 23.00601 72.73775 4122 ft 233 kts 43°
2026-05-08 18:46 23.01691 72.74955 4112 ft 217 kts 42°
2026-05-08 18:46 23.02731 72.76057 3959 ft 202 kts 42°
2026-05-08 18:47 23.03718 72.77104 3757 ft 190 kts 42°
2026-05-08 18:47 23.04615 72.78058 3610 ft 175 kts 42°
2026-05-08 18:47 23.05488 72.78987 3681 ft 190 kts 42°
2026-05-08 18:47 23.06551 72.80112 3636 ft 240 kts 42°
2026-05-08 18:48 23.07860 72.81490 3486 ft 277 kts 42°
2026-05-08 18:48 23.09259 72.82973 3343 ft 284 kts 42°
2026-05-08 18:48 23.10677 72.84486 3188 ft 285 kts 43°
2026-05-08 18:48 23.12054 72.85963 2896 ft 272 kts 43°
2026-05-08 18:49 23.13364 72.87363 2709 ft 256 kts 43°
2026-05-08 18:49 23.14599 72.88682 2497 ft 243 kts 42°
2026-05-08 18:49 23.15782 72.89942 2253 ft 234 kts 42°
2026-05-08 18:49 23.17081 72.90892 1967 ft 217 kts 11°
2026-05-08 18:50 23.18443 72.90844 1982 ft 179 kts 338°
2026-05-08 18:50 23.19537 72.90326 2019 ft 171 kts 323°
2026-05-08 18:50 23.20344 72.89433 2017 ft 163 kts 298°
2026-05-08 18:50 23.20774 72.88300 2030 ft 167 kts 289°
2026-05-08 18:51 23.21197 72.87102 2016 ft 173 kts 290°
2026-05-08 18:51 23.21644 72.85877 2009 ft 175 kts 290°
2026-05-08 18:51 23.22100 72.84653 2004 ft 175 kts 291°
2026-05-08 18:51 23.22563 72.83427 1991 ft 175 kts 291°
2026-05-08 18:52 23.23027 72.82205 1986 ft 175 kts 290°
2026-05-08 18:52 23.23068 72.80930 1926 ft 172 kts 248°
2026-05-08 18:52 23.22459 72.79794 2042 ft 176 kts 239°
2026-05-08 18:52 23.21747 72.78704 2022 ft 177 kts 234°
2026-05-08 18:53 23.20943 72.77689 2012 ft 177 kts 230°
2026-05-08 18:53 23.20091 72.76729 2006 ft 177 kts 229°
2026-05-08 18:53 23.19216 72.75782 1998 ft 178 kts 228°
2026-05-08 18:53 23.18339 72.74837 2000 ft 177 kts 228°
2026-05-08 18:54 23.17463 72.73894 1992 ft 177 kts 227°
2026-05-08 18:54 23.16584 72.72949 1991 ft 178 kts 228°
2026-05-08 18:54 23.15702 72.72001 1912 ft 178 kts 229°
2026-05-08 18:54 23.14856 72.71094 1731 ft 164 kts 228°
2026-05-08 18:55 23.13414 72.69547 1392 ft 137 kts 229°
2026-05-08 18:55 23.12743 72.68826 1224 ft 135 kts 230°
2026-05-08 18:55 23.12072 72.68104 1060 ft 136 kts 228°
2026-05-08 18:56 23.11403 72.67385 913 ft 136 kts 227°
2026-05-08 18:56 23.10724 72.66650 744 ft 138 kts 227°
2026-05-08 18:56 23.10026 72.65931 602 ft 138 kts 225°
2026-05-08 18:56 23.09343 72.65192 414 ft 138 kts 224°
2026-05-08 18:57 23.08687 72.64478 199 ft 128 kts 225°
2026-05-08 18:57 23.08289 72.64051 207 ft 111 kts 221°
2026-05-08 18:57 23.07634 72.63343 207 ft 108 kts 225°
2026-05-08 18:57 23.07180 72.62862 195 ft 41 kts 230°
2026-05-08 18:58 23.07154 72.62653 203 ft 22 kts 252°
2026-05-08 18:58 23.07149 72.62635 194 ft 0 kts 257°
2026-05-08 18:59 23.07147 72.62623 202 ft 5 kts 261°
2026-05-08 18:59 23.07172 72.62568 199 ft 13 kts 328°
2026-05-08 18:59 23.07260 72.62489 195 ft 20 kts 314°
2026-05-08 18:59 23.07294 72.62452 188 ft 2 kts 317°
2026-05-08 19:00 23.07299 72.62437 193 ft 2 kts 268°
2026-05-08 19:00 23.07293 72.62414 187 ft 4 kts 261°
2026-05-08 19:00 23.07303 72.62398 188 ft 2 kts 316°
2026-05-08 19:00 23.07307 72.62394 186 ft 0 kts 315°